"TOA5","AWS1","CR1000","7964","CR1000.Std.14","CPU:AWS1_114.CR1","64363","TBL110"
"TIMESTAMP","RECORD","Wind_spd_WVc(1)","Wind_spd_WVc(2)","Air_Temp_Avg","Humidity_Avg","SW_upper_Wm2_Avg","Rain_Tot","Press_Avg","Issui_Tot","Depth_cm","SR50A_Raw","Quality","Ground_Temp_Avg(1)","Ground_Temp_Avg(2)","SW_lower_Wm2_Avg","Albedo_Avg","SWC_per(1)","SWC_per(2)","Period(1)","Period(2)"
"TS","RN","","","","","","","","","","","","","","","","","","",""
"","","WVc","WVc","Avg","Avg","Avg","Tot","Avg","Tot","Smp","Smp","Smp","Avg","Avg","Avg","Avg","Smp","Smp","Smp","Smp"
"2018-02-23 00:00:00",328957,0.385,166.5,-4.969,70.94,0,0,863.5814,0,99.5,2.206,192,0.938,1.465,0,0,52.21,59.73,33.84,35.62
"2018-02-23 00:10:00",328958,0.391,166.4,-5.178,71.35,0,0,863.5624,0,99.7,2.205,190,0.937,1.463,0,0,52.21,59.67,33.84,35.6
"2018-02-23 00:20:00",328959,0.567,165.4,-5.268,71.02,0,0,863.5709,0,99.3,2.208,190,0.938,1.464,0,0,52.21,59.67,33.84,35.6
"2018-02-23 00:30:00",328960,0.571,148.3,-5.56,72.2,0,0,863.455,0,99.7,2.206,191,0.927,1.465,0,0,52.21,59.67,33.84,35.6
"2018-02-23 00:40:00",328961,0.528,145.3,-5.736,72.94,0,0,863.3854,0,99.5,2.208,190,0.91,1.467,0,0,52.21,59.73,33.84,35.62
"2018-02-23 00:50:00",328962,0.454,139.3,-5.952,73.6,0,0,863.3327,0,99.4,2.212,190,0.876,1.484,0,0,52.21,59.73,33.84,35.62
"2018-02-23 01:00:00",328963,0.36,145.9,-6.478,76.23,0,0,863.1872,0,99.6,2.21,190,0.884,1.505,0,0,52.21,59.67,33.84,35.6
"2018-02-23 01:10:00",328964,0.342,130.2,-6.341,76.63,0,0,863.1387,0,99.7,2.209,190,0.873,1.531,0,0,52.21,59.73,33.84,35.62
"2018-02-23 01:20:00",328965,0.151,139,-6.577,76.96,0,0,863.3053,0,99.4,2.214,191,0.883,1.542,0,0,52.21,59.73,33.84,35.62
"2018-02-23 01:30:00",328966,0.119,191.3,-6.703,78.97,0,0,863.3791,0,99.4,2.213,190,0.893,1.543,0.09104225,0,52.21,59.67,33.84,35.6
"2018-02-23 01:40:00",328967,0.1,191.8,-6.652,78.21,0,0,863.3284,0,99.5,2.212,189,0.897,1.532,0,0,52.21,59.73,33.84,35.62
"2018-02-23 01:50:00",328968,0.179,167.7,-6.833,79.28,0,0,863.1577,0,99.6,2.212,189,0.897,1.513,0,0,52.21,59.73,33.84,35.62
"2018-02-23 02:00:00",328969,0.092,154.6,-6.639,79.51,0,0,863.1394,0,99.5,2.212,190,0.9,1.494,0.1175979,0,52.21,59.73,33.84,35.62
"2018-02-23 02:10:00",328970,0.421,138,-6.36,78.49,0,0,863.1302,0,99.4,2.211,190,0.907,1.495,0.1365694,0,52.21,59.73,33.84,35.62
"2018-02-23 02:20:00",328971,0.229,134.6,-6.343,77.92,0,0,862.9894,0,99.5,2.211,191,0.92,1.486,0,0,52.21,59.73,33.84,35.62
"2018-02-23 02:30:00",328972,0.049,134.5,-6.462,78.22,0,0,862.9243,0,99.4,2.213,191,0.933,1.496,0,0,52.21,59.73,33.84,35.62
"2018-02-23 02:40:00",328973,0.062,106.9,-6.675,78.85,0,0,862.8771,0,99.2,2.215,190,0.94,1.501,0,0,52.21,59.73,33.84,35.62
"2018-02-23 02:50:00",328974,0.03,96.5,-6.629,77.79,0,0,862.9401,0,99.4,2.213,190,0.949,1.504,0,0,52.21,59.73,33.84,35.62
"2018-02-23 03:00:00",328975,0.022,97.2,-6.652,76.89,0,0,863.1022,0,99.3,2.214,192,0.967,1.508,0,0,52.21,59.73,33.84,35.62
"2018-02-23 03:10:00",328976,0.002,129.8,-7.073,78.04,0,0,862.9713,0,99.2,2.217,189,0.972,1.521,0,0,52.21,59.73,33.84,35.62
"2018-02-23 03:20:00",328977,0,0,-7.121,76.28,0,0,862.9219,0,99.4,2.214,189,0.966,1.537,0.003794685,0,52.21,59.73,33.84,35.62
"2018-02-23 03:30:00",328978,0.006,129.7,-7.256,76.06,0,0,862.9348,0,99.3,2.218,191,0.952,1.513,0.003794701,0,52.21,59.73,33.84,35.62
"2018-02-23 03:40:00",328979,0.002,129.5,-7.433,77,0,0,862.954,0,99.3,2.217,191,0.959,1.504,0,0,52.21,59.67,33.84,35.6
"2018-02-23 03:50:00",328980,0.013,128.7,-7.439,76.78,0,0,862.9606,0,99.3,2.218,190,0.962,1.504,0,0,52.21,59.67,33.84,35.6
"2018-02-23 04:00:00",328981,0.035,129.8,-7.615,77.7,0,0,862.9665,0,99.3,2.219,190,0.964,1.505,0,0,52.21,59.67,33.84,35.6
"2018-02-23 04:10:00",328982,0.054,129.7,-7.698,78.21,0,0,862.9632,0,99.2,2.22,190,0.969,1.505,0.01138417,0,52.27,59.67,33.85,35.6
"2018-02-23 04:20:00",328983,0.066,129.8,-7.77,78.6,0,0,862.9634,0,99.3,2.219,192,0.958,1.505,0.02276834,0,52.21,59.67,33.84,35.6
"2018-02-23 04:30:00",328984,0.223,165.6,-7.9,78.46,0,0,862.9656,0,99.4,2.218,191,0.961,1.505,0.01897362,0,52.21,59.67,33.84,35.6
"2018-02-23 04:40:00",328985,0.181,150.5,-7.416,76.72,0,0,862.9656,0,99.3,2.216,189,0.954,1.505,0.220094,0,52.21,59.67,33.84,35.6
"2018-02-23 04:50:00",328986,0.043,113.8,-7.459,76.62,0.09052014,0,862.9592,0,99.2,2.218,189,0.956,1.507,0.1973256,0.37,52.21,59.67,33.84,35.6
"2018-02-23 05:00:00",328987,0.016,115.9,-7.403,76.59,0.03148527,0,862.8917,0,99.3,2.217,191,0.961,1.505,0.2276834,0.129,52.21,59.67,33.84,35.6
"2018-02-23 05:10:00",328988,0.121,52.98,-7.05,74.65,0,0,862.9234,0,99.5,2.213,190,0.952,1.505,0.2049151,0,52.21,59.67,33.84,35.6
"2018-02-23 05:20:00",328989,0.177,6.636,-6.584,70.48,0,0,862.9656,0,99.4,2.212,189,0.956,1.505,0.398446,0,52.21,59.73,33.84,35.62
"2018-02-23 05:30:00",328990,0.115,41.2,-6.453,68.61,0,0,862.9656,0,99.2,2.215,190,0.949,1.505,0.07589447,0,52.21,59.73,33.84,35.62
"2018-02-23 05:40:00",328991,0.033,42.53,-6.803,70.18,0,0,862.9656,0,99.1,2.217,190,0.949,1.505,0,0,52.21,59.67,33.84,35.6
"2018-02-23 05:50:00",328992,0.099,82.9,-7.07,71.64,0,0,862.9698,0,99.5,2.215,191,0.954,1.507,0,0,52.27,59.67,33.85,35.6
"2018-02-23 06:00:00",328993,0.152,144.9,-7.451,73.68,0,0,862.9656,0,99.2,2.218,190,0.948,1.505,0.01138417,0,52.21,59.67,33.84,35.6
"2018-02-23 06:10:00",328994,0.149,153.6,-7.369,72.81,0,0,862.9656,0,99.2,2.217,189,0.951,1.505,0.0645103,0,52.21,59.73,33.84,35.62
"2018-02-23 06:20:00",328995,0.009,111.8,-6.876,70.42,0.01574263,0,862.9656,0,99.3,2.214,189,0.95,1.505,0.4819299,0.193,52.21,59.73,33.84,35.62
"2018-02-23 06:30:00",328996,0.16,116.2,-6.667,70,0.9799789,0,863.0837,0,99.2,2.215,193,0.949,1.505,1.111854,1.405,52.21,59.73,33.84,35.62
"2018-02-23 06:40:00",328997,0.061,209.5,-6.568,69.79,3.699519,0,863.2059,0,99.3,2.213,190,0.944,1.505,2.656307,0.726,52.21,59.67,33.84,35.6
"2018-02-23 06:50:00",328998,0.043,198.1,-6.504,69.73,9.740754,0,863.2186,0,99.1,2.216,190,0.944,1.505,6.261293,0.649,52.21,59.67,33.84,35.6
"2018-02-23 07:00:00",328999,0.085,169.1,-6.661,70.45,13.81022,0,863.2186,0,99.1,2.217,190,0.948,1.505,9.293277,0.673,52.21,59.73,33.84,35.62
"2018-02-23 07:10:00",329000,0.291,144.1,-6.941,72.8,19.39492,0,863.2186,0,99.3,2.215,189,0.954,1.505,12.88688,0.665,52.27,59.67,33.85,35.6
"2018-02-23 07:20:00",329001,0.547,158.5,-6.659,71.67,30.66271,0,863.2333,0,99.1,2.214,190,0.966,1.505,22.68106,0.733,52.21,59.73,33.84,35.62
"2018-02-23 07:30:00",329002,0.549,145.3,-6.082,69.23,55.36684,0,863.4359,0,99.2,2.213,190,0.96,1.502,36.85815,0.7,52.21,59.67,33.84,35.6
"2018-02-23 07:40:00",329003,0.794,147.4,-5.941,68.98,93.98746,0,863.4802,0,99.1,2.212,190,0.923,1.488,43.06252,0.523,52.21,59.73,33.84,35.62
"2018-02-23 07:50:00",329004,0.796,148.2,-5.496,67.15,190.2812,0,863.5983,0,99.1,2.21,190,0.92,1.502,54.04445,0.309,52.21,59.73,33.84,35.62
"2018-02-23 08:00:00",329005,0.669,145.3,-5.098,65.78,97.66336,0,863.7248,0,99.1,2.209,190,0.951,1.538,65.57661,0.825,52.21,59.73,33.84,35.62
"2018-02-23 08:10:00",329006,0.719,136.8,-4.898,65.37,110.2771,0,863.7248,0,99.2,2.208,190,0.983,1.522,73.22298,0.804,52.21,59.73,33.84,35.62
"2018-02-23 08:20:00",329007,0.795,122.9,-4.772,65.51,58.5626,0,863.7079,0,99.2,2.207,190,0.972,1.509,72.95735,1.258,52.21,59.67,33.84,35.6
"2018-02-23 08:30:00",329008,0.651,104.6,-4.608,65,96.86048,0,863.6531,0,99,2.208,190,0.947,1.559,77.19226,0.946,52.21,59.67,33.84,35.6
"2018-02-23 08:40:00",329009,0.666,114.6,-4.438,65.9,135.3471,0,863.7224,0,98.8,2.21,179,0.987,1.552,80.00782,0.686,52.21,59.67,33.84,35.6
"2018-02-23 08:50:00",329010,0.572,63.24,-4.426,65.05,167.0153,0,863.7232,0,99.3,2.204,189,0.981,1.54,93.88585,0.603,52.21,59.73,33.84,35.62
"2018-02-23 09:00:00",329011,0.358,33.38,-4.347,64.39,107.0241,0,863.6585,0,99.1,2.208,191,0.912,1.571,87.43726,0.876,52.21,59.73,33.84,35.62
"2018-02-23 09:10:00",329012,0.485,351.8,-4.451,63.95,140.565,0,863.6402,0,99.3,2.205,189,0.934,1.539,106.2667,0.772,52.21,59.73,33.84,35.62
"2018-02-23 09:20:00",329013,0.44,352.6,-4.234,63.55,170.4986,0,863.642,0,99.1,2.206,190,0.945,1.548,108.4915,0.638,52.21,59.67,33.84,35.6
"2018-02-23 09:30:00",329014,0.291,354.6,-4.132,63.88,125.5846,0,863.778,0,99,2.208,189,0.919,1.549,77.35636,0.618,52.21,59.73,33.84,35.62
"2018-02-23 09:40:00",329015,0.419,320.1,-4.879,66.81,85.8588,0,863.8177,0,99.1,2.21,190,0.933,1.556,54.64449,0.64,52.21,59.73,33.84,35.62
"2018-02-23 09:50:00",329016,0.362,316.7,-5.029,68.08,69.99546,0,863.8198,0,99,2.21,189,0.941,1.584,52.16727,0.74,52.21,59.73,33.84,35.62
"2018-02-23 10:00:00",329017,0.299,342.6,-4.797,68.45,75.58213,0,863.8825,0,99.2,2.205,189,0.94,1.568,68.8697,0.908,52.21,59.73,33.84,35.62
"2018-02-23 10:10:00",329018,0.401,54.6,-4.134,67.15,106.3273,0,863.9384,0,98.8,2.208,190,0.931,1.542,76.53129,0.77,52.21,59.73,33.84,35.62
"2018-02-23 10:20:00",329019,0.459,340.7,-3.908,65.11,94.16723,0,864.0522,0,99.1,2.204,187,0.91,1.534,83.95584,0.898,52.21,59.73,33.84,35.62
"2018-02-23 10:30:00",329020,0.368,25.02,-3.391,63.93,115.8213,0,864.114,0,99.1,2.202,191,0.922,1.521,105.3164,0.909,52.21,59.73,33.84,35.62
"2018-02-23 10:40:00",329021,0.691,102.1,-2.899,59.13,164.2861,0,864.0836,0,99.1,2.199,189,0.919,1.467,144.2511,0.884,52.21,59.73,33.84,35.62
"2018-02-23 10:50:00",329022,0.801,131.7,-2.711,59.12,211.4027,0,864.0062,0,99,2.2,189,0.906,1.434,180.24,0.861,52.21,59.73,33.84,35.62
"2018-02-23 11:00:00",329023,0.281,55.88,-2.363,58.29,283.4953,0,864.0549,0,98.7,2.201,190,0.881,1.476,221.7447,0.783,52.21,59.73,33.84,35.62
"2018-02-23 11:10:00",329024,0.373,131,-1.662,58.24,305.648,0,864.0508,0,98.1,2.205,190,0.895,1.498,234.6043,0.768,52.21,59.73,33.84,35.62
"2018-02-23 11:20:00",329025,0.795,78.66,-2.26,56.09,281.5013,0,864.0498,0,98.3,2.206,190,0.871,1.516,190.5106,0.669,52.21,59.73,33.84,35.62
"2018-02-23 11:30:00",329026,0.529,354.1,-2.253,57.63,373.2315,0,864.0496,0,98.2,2.206,189,0.86,1.53,242.281,0.651,52.21,59.73,33.84,35.62
"2018-02-23 11:40:00",329027,0.552,354.5,-1.973,54.59,383.9079,0,864.0496,0,98.1,2.206,190,0.856,1.536,295.7315,0.759,52.27,59.73,33.85,35.62
"2018-02-23 11:50:00",329028,0.583,47.67,-1.163,53.88,385.3219,0,864.0496,0,98.2,2.202,186,0.88,1.47,360.242,0.943,52.21,59.73,33.84,35.62
"2018-02-23 12:00:00",329029,0.51,37.3,-0.8,50.3,688.6033,0,864.0205,0,97.6,2.21,170,0.988,1.458,363.5907,0.536,52.27,59.73,33.85,35.62
"2018-02-23 12:10:00",329030,0.655,318.5,-1.496,50.08,659.5614,0,863.8492,0,97.8,2.207,178,0.949,1.424,397.8743,0.596,52.27,59.73,33.85,35.62
"2018-02-23 12:20:00",329031,0.72,298.8,-1.894,49.3,395.0339,0,863.9498,0,97.9,2.21,190,0.914,1.431,236.9672,0.589,52.21,59.73,33.84,35.62
"2018-02-23 12:30:00",329032,0.794,292.2,-2.528,48.98,238.1179,0,863.785,0,97.8,2.213,191,0.901,1.433,144.814,0.603,52.21,59.73,33.84,35.62
"2018-02-23 12:40:00",329033,0.619,290.5,-2.408,48.65,356.5016,0,863.5277,0,97.8,2.211,191,0.891,1.447,233.0664,0.633,52.27,59.73,33.85,35.62
"2018-02-23 12:50:00",329034,0.731,347.5,-1.319,43.9,883.1905,0,863.3729,0,97.4,2.21,190,0.863,1.413,612.2162,0.693,52.27,59.73,33.85,35.62
"2018-02-23 13:00:00",329035,0.726,325.7,-0.823,42.21,934.4799,0,863.3636,0,97.4,2.208,191,0.815,1.376,623.1483,0.667,52.21,59.73,33.84,35.62
"2018-02-23 13:10:00",329036,0.803,316.4,-0.684,39.39,826.6157,0,863.3524,0,97.3,2.211,190,0.829,1.44,545.9398,0.654,52.21,59.73,33.84,35.62
"2018-02-23 13:20:00",329037,0.646,326.3,-0.881,36.41,823.8575,0,863.3463,0,97.7,2.203,189,0.793,1.48,553.822,0.669,52.27,59.73,33.85,35.62
"2018-02-23 13:30:00",329038,0.584,296,-0.285,37.08,775.5481,0,863.2966,0,97.3,2.21,190,0.755,1.414,513.617,0.661,52.27,59.73,33.85,35.62
"2018-02-23 13:40:00",329039,1.127,315.2,-1.1,31.97,702.057,0,863.2783,0,97.6,2.208,190,0.732,1.388,459.3194,0.651,52.21,59.73,33.84,35.62
"2018-02-23 13:50:00",329040,0.614,305.5,-0.745,36.51,721.8505,0,863.3096,0,97.7,2.206,190,0.714,1.387,445.261,0.617,52.27,59.73,33.85,35.62
"2018-02-23 14:00:00",329041,0.474,299.7,-0.792,39.5,748.4188,0,863.5013,0,97.7,2.207,192,0.694,1.356,389.8401,0.519,52.27,59.73,33.85,35.62
"2018-02-23 14:10:00",329042,0.637,264.4,-1.305,39.22,632.3145,0,863.5269,0,97.7,2.21,190,0.681,1.323,231.2633,0.365,52.21,59.73,33.84,35.62
"2018-02-23 14:20:00",329043,0.798,267.1,-1.897,42.03,212.1434,0,863.5172,0,98.1,2.207,190,0.679,1.349,105.0023,0.522,52.21,59.73,33.84,35.62
"2018-02-23 14:30:00",329044,0.827,312.3,-1.748,42.12,118.0701,0,863.5711,0,98,2.207,190,0.678,1.314,81.03709,0.687,52.27,59.73,33.85,35.62
"2018-02-23 14:40:00",329045,0.706,271.2,-1.781,40.53,121.5727,0,863.7507,0,97.9,2.21,190,0.692,1.298,77.03757,0.635,52.27,59.73,33.85,35.62
"2018-02-23 14:50:00",329046,0.301,289.3,-1.853,41.09,76.51698,0,863.7766,0,98,2.207,190,0.704,1.29,51.44612,0.672,52.27,59.73,33.85,35.62
"2018-02-23 15:00:00",329047,0.598,270.1,-1.854,37.36,68.46874,0,863.9508,0,98,2.208,190,0.687,1.314,46.3751,0.677,52.21,59.73,33.84,35.62
"2018-02-23 15:10:00",329048,0.707,271.4,-2.029,35.49,64.63486,0,864.2136,0,97.7,2.212,191,0.709,1.298,43.78332,0.677,52.27,59.73,33.85,35.62
"2018-02-23 15:20:00",329049,0.547,281.2,-2.175,35.83,60.90355,0,864.3701,0,97.7,2.212,189,0.779,1.289,40.7057,0.668,52.21,59.73,33.84,35.62
"2018-02-23 15:30:00",329050,0.5,261.4,-2.123,33.87,61.28988,0,864.6161,0,97.8,2.211,190,0.77,1.311,40.68638,0.664,52.27,59.73,33.85,35.62
"2018-02-23 15:40:00",329051,0.435,253.7,-2.187,37.58,59.49179,0,864.7291,0,97.6,2.213,190,0.759,1.342,38.91041,0.654,52.21,59.73,33.84,35.62
"2018-02-23 15:50:00",329052,0.581,276.8,-2.239,37.69,59.49664,0,864.997,0,97.9,2.21,190,0.745,1.366,38.28573,0.645,52.21,59.73,33.84,35.62
"2018-02-23 16:00:00",329053,0.584,255.8,-2.574,40.79,67.63922,0,865.1572,0,97.8,2.213,189,0.745,1.39,41.21541,0.613,52.27,59.73,33.85,35.62
"2018-02-23 16:10:00",329054,0.586,283.5,-2.447,38.5,118.4982,0,865.3876,0,97.5,2.214,192,0.784,1.426,68.33754,0.577,52.27,59.73,33.85,35.62
"2018-02-23 16:20:00",329055,0.6,280.2,-2.369,40.41,88.5996,0,865.4521,0,97.5,2.214,190,0.807,1.439,50.67767,0.572,52.27,59.73,33.85,35.62
"2018-02-23 16:30:00",329056,0.948,273.9,-2.599,40.13,39.70497,0,865.5015,0,97.6,2.216,191,0.808,1.382,24.3975,0.62,52.21,59.67,33.84,35.6
"2018-02-23 16:40:00",329057,1.014,285.5,-2.813,43.29,44.11269,0,865.6365,0,97.7,2.215,190,0.829,1.339,26.69876,0.606,52.27,59.73,33.85,35.62
"2018-02-23 16:50:00",329058,0.652,290.4,-3.001,45.85,44.96204,0,865.8019,0,97.7,2.215,191,0.85,1.351,26.62681,0.594,52.21,59.73,33.84,35.62
"2018-02-23 17:00:00",329059,1.074,276.4,-3.134,46.42,33.98891,0,865.9666,0,97.6,2.217,191,0.85,1.365,19.87914,0.593,52.21,59.73,33.84,35.62
"2018-02-23 17:10:00",329060,0.709,308.6,-3.199,46.22,23.69602,0,866.1373,0,97.6,2.218,190,0.828,1.37,14.51139,0.613,52.27,59.73,33.85,35.62
"2018-02-23 17:20:00",329061,0.391,290.1,-3.339,48.5,18.40877,0,866.249,0,97.7,2.217,189,0.785,1.382,11.03945,0.6,52.27,59.67,33.85,35.6
"2018-02-23 17:30:00",329062,0.525,310.6,-3.497,50.29,6.126552,0,866.4459,0,97.6,2.218,192,0.836,1.418,4.750786,0.844,52.21,59.67,33.84,35.6
"2018-02-23 17:40:00",329063,0.452,288.5,-3.754,51.75,0.4325913,0,866.5263,0,97.5,2.22,190,0.87,1.442,1.562256,0.911,52.21,59.73,33.84,35.62
"2018-02-23 17:50:00",329064,0.558,295.2,-3.799,53,0,0,866.6288,0,97.5,2.221,189,0.865,1.455,0.2502746,0,52.21,59.73,33.84,35.62
"2018-02-23 18:00:00",329065,0.39,290.9,-4.02,55.68,0,0,866.7666,0,97.5,2.221,191,0.856,1.483,0,0,52.27,59.73,33.85,35.62
"2018-02-23 18:10:00",329066,0.799,325.3,-4.165,58.58,0,0,866.7537,0,97.6,2.221,191,0.855,1.499,0,0,52.27,59.73,33.85,35.62
"2018-02-23 18:20:00",329067,1.072,313.6,-4.169,60.69,0,0,866.8311,0,97.6,2.221,190,0.852,1.502,0,0,52.27,59.73,33.85,35.62
"2018-02-23 18:30:00",329068,1.049,345.8,-4.199,62.18,0,0,866.8336,0,97.5,2.222,189,0.852,1.512,0,0,52.21,59.73,33.84,35.62
"2018-02-23 18:40:00",329069,1.464,308.7,-4.302,64.17,0,0,866.9285,0,97.5,2.223,190,0.852,1.521,0,0,52.21,59.67,33.84,35.6
"2018-02-23 18:50:00",329070,1.04,304.5,-4.438,66.83,0,0,867.0718,0,97.5,2.223,189,0.852,1.536,0,0,52.21,59.73,33.84,35.62
"2018-02-23 19:00:00",329071,1.096,319.7,-4.574,69.77,0,0,867.154,0,97.5,2.224,190,0.852,1.536,0,0,52.27,59.73,33.85,35.62
"2018-02-23 19:10:00",329072,0.758,331.4,-4.724,73.87,0,0,867.3416,0,97.5,2.225,190,0.852,1.535,0,0,52.21,59.67,33.84,35.6
"2018-02-23 19:20:00",329073,1.037,344.4,-5.126,82.3,0,0,867.4997,0,97.4,2.227,192,0.852,1.513,0,0,52.27,59.73,33.85,35.62
"2018-02-23 19:30:00",329074,0.509,328.9,-5.405,88.1,0,0,867.5882,0,97.6,2.226,168,0.852,1.471,0,0,52.21,59.73,33.84,35.62
"2018-02-23 19:40:00",329075,0.346,307.5,-5.417,89.2,0,0,867.5903,0,97.4,2.228,192,0.848,1.469,0,0,52.27,59.67,33.85,35.6
"2018-02-23 19:50:00",329076,0.449,262.6,-5.381,87.5,0,0,867.5903,0,97.4,2.227,192,0.837,1.461,0.1478963,0,52.21,59.67,33.84,35.6
"2018-02-23 20:00:00",329077,0.347,107,-5.275,87.8,0,0,867.5924,0,97.4,2.227,190,0.821,1.47,0.170655,0,52.21,59.73,33.84,35.62
"2018-02-23 20:10:00",329078,0.316,214.1,-5.233,87.6,0,0,867.7336,0,97.4,2.227,186,0.817,1.473,0.2275438,0,52.27,59.67,33.85,35.6
"2018-02-23 20:20:00",329079,1.175,335.6,-5.247,87.1,0,0,867.9718,0,97.7,2.224,189,0.826,1.49,0.2048011,0,52.21,59.67,33.84,35.6
"2018-02-23 20:30:00",329080,1.24,308.1,-5.314,84.3,0,0,868.1025,0,97.7,2.225,189,0.837,1.505,0,0,52.27,59.67,33.85,35.6
"2018-02-23 20:40:00",329081,0.775,281.6,-5.439,83.4,0,0,868.1336,0,97.8,2.225,191,0.858,1.517,0,0,52.27,59.73,33.85,35.62
"2018-02-23 20:50:00",329082,1.099,329.8,-5.533,80.6,0,0,868.2217,0,97.8,2.225,190,0.885,1.523,0.04551965,0,52.27,59.73,33.85,35.62
"2018-02-23 21:00:00",329083,0.832,318.5,-5.458,79.39,0,0,868.3783,0,97.7,2.225,192,0.899,1.492,0.2086334,0,52.21,59.73,33.84,35.62
"2018-02-23 21:10:00",329084,0.359,160.3,-5.477,80.1,0,0,868.3958,0,97.6,2.227,191,0.905,1.48,0.08724669,0,52.27,59.67,33.85,35.6
"2018-02-23 21:20:00",329085,0.517,183.8,-5.739,82.2,0,0,868.2047,0,97.6,2.228,191,0.928,1.456,0,0,52.21,59.67,33.84,35.6
"2018-02-23 21:30:00",329086,0.675,179.2,-5.927,81.8,0,0,868.1886,0,97.7,2.227,190,0.936,1.459,0.01138019,0,52.21,59.67,33.84,35.6
"2018-02-23 21:40:00",329087,0.546,163.2,-6.024,81.2,0,0,868.2069,0,97.5,2.23,192,0.938,1.464,0.0644878,0,52.21,59.67,33.84,35.6
"2018-02-23 21:50:00",329088,0.975,171.8,-6.157,82.4,0,0,868.0464,0,97.4,2.231,190,0.94,1.464,0.072075,0,52.21,59.73,33.84,35.62
"2018-02-23 22:00:00",329089,0.716,202.1,-6.258,80.8,0,0,867.8445,0,97.6,2.231,191,0.938,1.472,0.05690138,0,52.21,59.67,33.84,35.6
"2018-02-23 22:10:00",329090,0.845,182.7,-6.41,79.8,0,0,867.8405,0,97.6,2.231,190,0.923,1.494,0.06069483,0,52.27,59.73,33.85,35.62
"2018-02-23 22:20:00",329091,0.961,188,-6.367,77.46,0,0,867.8531,0,97.6,2.23,189,0.901,1.51,0.2617465,0,52.21,59.67,33.84,35.6
"2018-02-23 22:30:00",329092,0.614,172.5,-6.249,74.23,0,0,867.6823,0,97.5,2.23,190,0.869,1.531,0.1744976,0,52.27,59.67,33.85,35.6
"2018-02-23 22:40:00",329093,1.283,178.3,-6.241,69.89,0,0,867.4398,0,97.5,2.23,190,0.901,1.52,0.3262347,0,52.21,59.67,33.84,35.6
"2018-02-23 22:50:00",329094,0.529,159.4,-6.248,56.3,0,0,867.4271,0,97.7,2.229,192,0.909,1.499,0.07586853,0,52.21,59.67,33.84,35.6
"2018-02-23 23:00:00",329095,0.214,348.1,-6.195,51.56,0,0,867.3492,0,97.4,2.231,189,0.898,1.512,0.1744976,0,52.21,59.73,33.84,35.62
"2018-02-23 23:10:00",329096,0.361,184,-6.131,49.95,0,0,867.4482,0,97.1,2.236,190,0.897,1.474,0.3565821,0,52.21,59.67,33.84,35.6
"2018-02-23 23:20:00",329097,0.417,186.4,-6.448,49.83,0,0,867.2627,0,97.9,2.226,192,0.897,1.462,0.595568,0,52.21,59.67,33.84,35.6
"2018-02-23 23:30:00",329098,0.118,123.1,-6.364,49.01,0,0,867.1383,0,97.3,2.235,191,0.899,1.449,0.273128,0,52.21,59.73,33.84,35.62
"2018-02-23 23:40:00",329099,0.066,129.2,-7.109,55.48,0,0,866.9317,0,97.6,2.234,191,0.922,1.418,0.08345832,0,52.21,59.67,33.84,35.6
"2018-02-23 23:50:00",329100,0.159,186.5,-6.561,48.71,0,0,866.9295,0,97.2,2.235,190,0.96,1.408,1.111603,0,52.21,59.67,33.84,35.6
